GFSFLT1_700_temp_234.txt.gz
Temp
10 10 10 10 10 10 10 10 9 9 9 9 8 8 8 8 8 8 8 8 7 7 7 7 7 7 7 7 7 7 7 7
10 10 10 10 10 10 10 10 10 9 9 9 9 8 8 8 8 8 8 8 8 7 7 7 7 7 7 6 7 7 6 6
10 10 10 10 10 10 10 10 10 10 10 9 9 8 8 8 7 7 7 8 8 7 7 7 7 6 6 6 6 7 6 6
10 10 10 10 10 9 10 9 10 10 10 9 9 8 8 7 7 7 8 7 7 7 7 6 6 6 6 6 6 6 6 5
10 10 10 11 10 10 9 9 9 10 9 9 9 8 8 8 7 7 7 7 6 6 6 6 6 6 6 6 5 5 5 4
10 10 10 10 10 9 9 9 9 9 9 9 9 8 8 7 7 7 7 6 6 7 6 6 6 6 6 4 4 4 5 4
10 10 10 10 10 10 9 9 9 9 9 9 9 8 8 8 7 7 7 6 6 6 6 6 7 7 6 6 6 6 5 5
9 10 10 10 10 10 10 9 9 9 9 9 9 8 8 8 7 7 6 7 6 6 6 5 6 6 6 6 5 5 4 4
9 10 10 10 10 10 10 10 9 9 9 9 9 9 8 8 7 6 6 6 6 6 6 5 6 5 5 4 4 4 4 3
10 10 10 10 10 10 10 10 9 9 9 9 9 9 8 8 8 6 6 6 6 6 6 6 5 4 4 4 4 3 3 3
10 10 9 9 10 10 10 10 10 10 10 9 9 9 8 8 7 6 6 6 6 6 6 5 4 4 4 3 3 3 3 3
8 9 10 9 9 10 10 10 10 10 10 9 9 8 8 7 7 6 6 6 6 6 5 4 4 3 3 3 3 3 3 2
8 8 8 8 9 9 9 10 10 10 10 9 9 8 8 7 7 6 5 5 5 5 4 3 3 2 2 2 3 2 2 2
8 8 8 8 8 9 9 9 9 9 9 9 9 8 7 7 6 5 5 5 5 4 4 3 2 2 2 2 2 2 2 1
8 8 8 8 8 7 8 8 9 9 9 8 8 7 7 6 5 5 4 4 4 3 2 2 2 2 1 1 1 1 1 1
8 8 7 7 7 7 7 7 8 8 8 8 7 7 6 6 5 4 4 3 3 2 2 1 1 1 1 1 1 1 1 1
6 5 6 7 7 7 8 8 7 7 7 7 7 6 6 5 4 4 3 2 2 1 1 1 1 0 1 1 1 1 0 -0
6 6 6 6 6 6 7 7 7 7 7 7 6 5 4 4 4 3 2 1 1 0 0 0 0 0 1 1 0 -0 -1 -2
5 6 6 6 6 7 7 7 7 7 7 5 5 4 3 3 3 2 1 1 -1 -0 0 0 0 1 1 0 -0 -1 -2 -3

GFSFLT1_700_temp_237.txt.gz
Temp
11 10 10 9 9 11 11 11 10 10 10 10 10 9 9 9 8 8 8 8 8 8 7 7 7 7 7 7 7 7 7 6
11 11 10 9 9 11 11 11 10 10 10 10 10 10 9 9 8 8 8 8 8 7 7 7 7 7 7 7 7 6 6 6
11 11 10 9 10 10 10 11 10 10 10 10 9 9 9 8 8 8 8 8 8 8 7 7 7 7 7 6 6 6 6 6
10 10 10 10 10 10 10 10 10 10 10 9 9 9 9 8 8 8 8 8 8 7 7 7 7 7 7 6 6 6 6 6
10 10 10 9 11 11 11 10 10 10 10 10 9 9 9 9 8 8 8 8 8 7 7 7 7 7 7 6 6 6 6 5
10 10 10 9 11 11 11 10 10 9 10 10 10 9 9 9 8 8 8 7 7 7 7 7 6 6 6 6 6 5 4 4
10 10 10 9 9 11 10 10 10 9 9 9 9 10 9 9 8 8 8 7 7 7 6 6 6 6 6 6 5 5 4 5
11 10 9 10 9 9 10 10 10 9 9 9 9 9 9 9 9 8 8 7 7 6 6 6 6 6 5 5 5 6 5 5
10 10 9 9 9 9 9 10 10 9 9 9 9 9 9 9 9 8 8 7 6 6 6 6 6 6 5 5 5 5 5 4
10 9 9 8 8 8 9 10 10 9 9 10 9 9 9 9 9 8 8 7 6 6 6 6 6 6 6 5 5 5 4 4
8 8 8 8 8 7 8 10 10 9 10 10 9 9 9 9 8 8 8 8 7 6 6 6 6 6 6 5 5 4 4 3
8 8 8 7 7 7 6 9 9 10 10 10 9 9 9 9 8 8 8 7 7 6 6 6 5 6 5 4 4 3 3 3
8 7 8 8 8 7 6 8 9 10 10 10 9 9 9 9 9 8 8 7 6 6 6 5 5 5 5 4 3 3 3 3
7 7 8 8 8 8 7 8 9 10 10 9 9 9 9 9 8 8 7 7 6 6 6 5 5 5 4 3 3 3 3 2
7 7 8 8 8 8 8 8 9 9 9 10 9 9 8 8 8 7 7 7 6 6 5 5 5 4 3 3 3 2 2 2
7 7 7 7 7 7 8 8 9 9 9 9 9 9 8 8 8 7 7 6 6 6 5 5 4 3 3 2 2 2 2 1
5 5 6 7 7 7 7 8 8 8 8 8 8 8 7 7 7 7 6 6 6 5 5 4 3 2 2 2 2 1 1 1
5 5 5 5 6 6 6 7 7 7 8 8 8 8 8 7 7 6 6 6 5 5 4 3 2 2 2 1 1 1 1 1
3 4 5 5 5 5 6 6 7 7 7 7 7 7 7 7 7 6 6 5 4 4 3 2 1 0 1 1 1 1 1 0

GFSFLT1_700_temp_243.txt.gz
Temp
11 11 11 10 10 10 11 11 11 11 11 11 11 11 11 11 11 10 10 9 9 9 8 8 8 7 7 7 7 7 7 7
11 11 11 11 10 10 10 11 11 11 11 11 11 11 11 11 11 10 10 10 9 9 8 8 8 7 7 7 7 7 7 7
12 11 11 11 11 11 11 11 11 11 11 11 11 11 11 11 10 10 9 9 9 9 8 8 8 7 7 7 7 7 7 6
12 12 11 11 11 11 11 11 11 11 11 11 10 10 10 10 10 10 10 9 9 8 8 8 8 8 7 7 7 7 7 6
12 12 12 11 11 11 11 11 11 11 11 11 11 11 11 11 11 10 10 9 9 8 8 8 8 8 7 7 7 7 7 6
12 12 12 12 11 11 11 11 11 11 11 11 10 10 11 10 10 10 10 9 9 8 8 7 7 7 7 7 7 6 6 6
12 12 12 12 12 11 11 11 11 11 10 10 10 10 10 10 10 10 10 9 9 8 8 8 7 7 7 7 6 6 6 6
11 12 12 12 12 11 11 11 10 10 10 10 10 10 10 10 10 10 10 10 9 9 8 8 8 8 7 7 6 6 6 5
12 12 12 12 12 11 11 11 11 11 10 10 10 10 10 9 9 9 9 9 9 9 8 8 8 8 7 7 6 6 6 5
12 12 12 12 12 12 11 11 11 11 10 10 10 10 10 9 10 9 9 9 9 9 8 8 8 8 7 7 6 5 5 6
12 12 12 12 12 12 11 11 11 11 10 10 10 10 10 9 9 9 9 9 9 9 8 8 7 7 7 7 6 6 6 5
12 12 12 12 12 11 11 11 11 10 10 10 9 9 9 9 8 9 9 8 8 8 8 7 7 7 7 7 6 6 6 6
12 12 11 11 11 11 11 11 10 10 10 10 9 9 8 8 7 8 9 8 8 7 7 7 7 7 7 6 6 6 6 6
10 11 11 11 11 11 11 10 10 10 10 9 8 8 8 7 8 8 9 8 7 7 7 7 7 7 6 6 6 6 5 5
10 10 10 10 9 9 9 9 9 9 9 8 8 7 7 7 7 8 9 8 7 6 6 6 6 6 6 6 6 6 5 5
9 9 9 9 8 8 8 8 8 9 8 8 7 7 7 7 7 8 8 7 6 6 6 6 5 5 5 6 6 5 5 4
6 7 8 8 8 8 8 8 8 8 8 7 7 7 6 7 7 7 7 6 6 6 6 6 6 5 6 5 5 5 4 4
4 4 5 6 7 7 7 7 7 7 7 6 6 6 6 6 7 7 6 6 7 7 6 6 6 5 4 4 5 4 3 3
3 3 3 4 5 6 6 6 6 6 6 6 6 6 6 7 7 7 6 6 7 7 6 6 5 4 4 4 4 3 3 2

GFSFLT1_700_temp_246.txt.gz
Temp
11 11 11 11 12 11 11 11 11 10 11 11 11 10 10 10 10 10 10 10 10 10 9 9 8 8 8 8 8 7 7 7
11 11 11 11 11 11 11 11 11 10 11 11 11 11 11 11 11 11 10 10 9 10 9 9 8 8 8 7 7 7 7 7
11 11 11 11 11 11 11 11 11 11 11 11 11 11 11 11 11 11 10 9 9 10 9 9 8 8 8 7 7 7 7 7
12 11 11 11 11 11 11 11 11 11 10 10 10 10 11 11 11 11 11 10 10 9 9 9 8 8 7 7 7 7 7 7
12 12 11 11 11 11 11 11 11 11 10 10 10 11 11 11 11 11 10 10 10 9 9 9 8 8 7 7 7 7 7 7
11 12 12 12 12 12 12 11 11 11 11 11 11 10 11 10 10 10 10 10 10 9 9 9 8 8 7 7 7 7 7 6
12 12 12 12 12 12 12 12 11 11 11 11 11 11 10 10 10 10 10 10 9 9 9 9 8 7 7 7 7 7 6 6
12 12 12 12 12 12 12 12 11 11 11 11 11 11 10 10 10 10 10 10 10 10 9 9 8 8 7 7 7 7 6 6
11 12 12 12 12 12 12 12 12 11 11 11 11 11 10 10 10 10 10 10 10 9 9 9 8 8 8 7 7 7 6 6
11 12 12 12 12 11 12 12 12 12 11 11 11 10 10 10 10 10 10 10 9 9 9 8 8 8 8 8 7 7 6 6
11 11 11 12 11 12 12 12 12 12 12 11 11 11 11 10 10 10 9 10 10 10 9 8 8 8 8 7 7 7 6 6
11 11 11 11 11 12 11 11 12 12 12 11 11 11 10 10 10 10 9 9 9 9 9 8 8 8 7 7 7 7 6 5
11 11 11 11 11 11 11 11 11 11 11 11 11 11 10 10 10 10 9 9 9 9 8 8 8 7 7 7 7 6 6 6
10 10 11 11 11 11 11 11 12 12 11 11 11 11 10 10 10 9 8 8 8 8 8 7 7 7 7 7 6 5 5 4
10 10 11 11 11 11 11 11 11 12 11 10 10 10 10 10 9 9 8 8 8 7 8 7 6 6 6 6 4 4 3 3
8 8 10 10 10 10 11 11 10 10 10 10 10 9 9 9 8 8 7 7 7 7 7 7 6 5 5 4 4 3 3 2
4 6 6 8 9 9 10 10 10 10 10 10 9 9 8 8 8 7 7 6 6 6 6 6 5 5 4 4 4 3 1 2
2 4 5 5 7 8 8 8 8 8 9 8 8 8 7 7 7 6 6 6 6 6 6 6 6 5 4 3 3 2 3 2
2 2 2 3 4 5 6 7 7 7 7 7 7 7 6 6 6 6 5 5 6 5 6 6 5 5 4 4 3 2 2 2